^^
Saratoga-Weather Station Historical Data
Daily Summary for September 15, 2021 Units:  Metric    English   Both
Daily Weekly Monthly Yearly Custom
  High: Low: Average:
Temperature: 22.2 °C 17.4 °C 19.2 °C
Dew Point: 19.4 °C 16.6 °C 17.8 °C
Humidity: 96% 83% 92%
Wind Speed: 13km/h 0km/h 1.9km/h
Wind Gust: 16.1km/h - -
Wind- - WSW
Pressure: 1012.9 hPa 1010.2 hPa -
Precipitation: 1.3 mm    
Historical Graphs
 
 
Tabular Data for September 15, 2021
Time Temperature Dew Point Pressure Wind Wind Speed Wind Gust Humidity Rainfall Rate (Hourly) solar
00:01 17.9 °C 16.9 °C 1011.9 hPa Calm     94% 0.0 mm 0 W/m2
00:06 17.9 °C 16.9 °C 1011.9 hPa Calm     94% 0.0 mm 0 W/m2
00:11 17.9 °C 16.9 °C 1011.9 hPa Calm     94% 0.0 mm 0 W/m2
00:16 17.9 °C 16.9 °C 1011.9 hPa Calm     94% 0.0 mm 0 W/m2
00:21 17.9 °C 16.9 °C 1011.9 hPa Calm     94% 0.0 mm 0 W/m2
00:26 17.9 °C 16.9 °C 1011.9 hPa Calm     94% 0.0 mm 0 W/m2
00:31 17.8 °C 16.8 °C 1011.9 hPa Calm     94% 0.0 mm 0 W/m2
00:36 17.8 °C 16.8 °C 1011.9 hPa Calm     94% 0.0 mm 0 W/m2
00:41 17.8 °C 16.8 °C 1011.9 hPa Calm     94% 0.0 mm 0 W/m2
00:46 17.8 °C 16.8 °C 1011.9 hPa Calm     94% 0.0 mm 0 W/m2
00:51 17.8 °C 16.8 °C 1011.9 hPa Calm     94% 0.0 mm 0 W/m2
00:56 17.8 °C 17 °C 1011.9 hPa Calm     95% 0.0 mm 0 W/m2
01:01 17.7 °C 16.9 °C 1011.9 hPa Calm     95% 0.0 mm 0 W/m2
01:06 17.7 °C 16.9 °C 1011.9 hPa Calm     95% 0.0 mm 0 W/m2
01:11 17.7 °C 16.9 °C 1011.9 hPa Calm     95% 0.0 mm 0 W/m2
01:16 17.7 °C 16.9 °C 1011.9 hPa Calm     95% 0.0 mm 0 W/m2
01:21 17.7 °C 16.9 °C 1011.9 hPa Calm     95% 0.0 mm 0 W/m2
01:26 17.7 °C 16.9 °C 1011.9 hPa Calm     95% 0.0 mm 0 W/m2
01:31 17.7 °C 16.9 °C 1011.9 hPa Calm     95% 0.0 mm 0 W/m2
01:36 17.7 °C 16.9 °C 1011.9 hPa Calm     95% 0.0 mm 0 W/m2
01:41 17.7 °C 16.9 °C 1011.9 hPa Calm     95% 0.0 mm 0 W/m2
01:46 17.7 °C 16.9 °C 1011.9 hPa Calm     95% 0.0 mm 0 W/m2
01:51 17.7 °C 16.9 °C 1011.9 hPa Calm     95% 0.0 mm 0 W/m2
01:56 17.7 °C 16.9 °C 1011.9 hPa Calm     95% 0.0 mm 0 W/m2
02:01 17.7 °C 16.9 °C 1011.9 hPa Calm     95% 0.0 mm 0 W/m2
02:06 17.7 °C 16.9 °C 1011.9 hPa Calm     95% 0.0 mm 0 W/m2
02:11 17.7 °C 16.9 °C 1011.5 hPa Calm     95% 0.0 mm 0 W/m2
02:17 17.8 °C 17 °C 1011.5 hPa Calm     95% 0.0 mm 0 W/m2
02:22 17.8 °C 17 °C 1011.5 hPa Calm     95% 0.0 mm 0 W/m2
02:27 17.8 °C 17 °C 1011.2 hPa Calm     95% 0.0 mm 0 W/m2
02:32 17.7 °C 16.9 °C 1011.2 hPa Calm     95% 0.0 mm 0 W/m2
02:37 17.7 °C 16.9 °C 1011.2 hPa Calm   1.6 km/h 95% 0.0 mm 0 W/m2
02:42 17.7 °C 16.9 °C 1010.8 hPa Calm     95% 0.0 mm 0 W/m2
02:47 17.7 °C 16.9 °C 1010.8 hPa Calm   1.6 km/h 95% 0.0 mm 0 W/m2
02:52 17.7 °C 16.9 °C 1010.8 hPa Calm     95% 0.0 mm 0 W/m2
02:57 17.7 °C 16.9 °C 1010.8 hPa Calm   4.8 km/h 95% 0.0 mm 0 W/m2
03:02 17.8 °C 17 °C 1010.8 hPa SE 3.2 km/h 3.2 km/h 95% 0.0 mm 0 W/m2
03:07 17.9 °C 17.3 °C 1010.8 hPa SE 1.4 km/h 4.8 km/h 96% 0.0 mm 0 W/m2
03:12 17.9 °C 17.3 °C 1010.8 hPa SE 3.2 km/h 3.2 km/h 96% 0.0 mm 0 W/m2
03:17 17.9 °C 17.1 °C 1010.8 hPa ESE 1.4 km/h 4.8 km/h 95% 0.0 mm 0 W/m2
03:22 17.9 °C 17.1 °C 1010.8 hPa ESE 1.4 km/h 3.2 km/h 95% 0.0 mm 0 W/m2
03:27 17.8 °C 17 °C 1010.5 hPa Calm   4.8 km/h 95% 0.0 mm 0 W/m2
03:32 17.8 °C 17 °C 1010.5 hPa Calm     95% 0.0 mm 0 W/m2
03:37 17.8 °C 17 °C 1010.5 hPa Calm   1.6 km/h 95% 0.0 mm 0 W/m2
03:42 17.8 °C 17 °C 1010.8 hPa Calm     95% 0.0 mm 0 W/m2
03:47 17.8 °C 17 °C 1010.5 hPa Calm   1.6 km/h 95% 0.0 mm 0 W/m2
03:52 17.8 °C 17 °C 1010.5 hPa Calm     95% 0.0 mm 0 W/m2
03:57 17.7 °C 16.9 °C 1010.5 hPa Calm     95% 0.0 mm 0 W/m2
04:02 17.7 °C 16.9 °C 1010.5 hPa Calm     95% 0.0 mm 0 W/m2
04:07 17.7 °C 16.9 °C 1010.5 hPa Calm     95% 0.0 mm 0 W/m2
04:12 17.7 °C 16.9 °C 1010.5 hPa Calm     95% 0.0 mm 0 W/m2
04:17 17.6 °C 16.8 °C 1010.5 hPa Calm     95% 0.0 mm 0 W/m2
04:22 17.6 °C 16.8 °C 1010.2 hPa Calm     95% 0.0 mm 0 W/m2
04:27 17.6 °C 16.8 °C 1010.2 hPa Calm     95% 0.0 mm 0 W/m2
04:32 17.6 °C 16.8 °C 1010.5 hPa Calm     95% 0.0 mm 0 W/m2
04:37 17.6 °C 17 °C 1010.5 hPa Calm     96% 0.0 mm 0 W/m2
04:42 17.6 °C 17 °C 1010.5 hPa Calm     96% 0.0 mm 0 W/m2
04:47 17.6 °C 17 °C 1010.5 hPa Calm   3.2 km/h 96% 0.0 mm 0 W/m2
04:52 17.7 °C 17.1 °C 1010.8 hPa Calm     96% 0.0 mm 0 W/m2
04:57 17.7 °C 17.1 °C 1010.8 hPa Calm   1.6 km/h 96% 0.0 mm 0 W/m2
05:02 17.7 °C 17.1 °C 1010.8 hPa Calm   1.6 km/h 96% 0.0 mm 0 W/m2
05:07 17.7 °C 17.1 °C 1010.5 hPa Calm     96% 0.0 mm 0 W/m2
05:12 17.7 °C 17.1 °C 1010.8 hPa Calm   1.6 km/h 96% 0.0 mm 0 W/m2
05:17 17.7 °C 17.1 °C 1010.8 hPa Calm     96% 0.0 mm 0 W/m2
05:22 17.7 °C 17.1 °C 1010.8 hPa Calm     96% 0.0 mm 0 W/m2
05:27 17.6 °C 17 °C 1011.2 hPa Calm     96% 0.0 mm 0 W/m2
05:32 17.6 °C 17 °C 1010.8 hPa Calm     96% 0.0 mm 0 W/m2
05:37 17.6 °C 17 °C 1011.2 hPa Calm     96% 0.0 mm 0 W/m2
05:42 17.6 °C 17 °C 1010.8 hPa Calm     96% 0.0 mm 0 W/m2
05:47 17.6 °C 17 °C 1010.8 hPa Calm     96% 0.0 mm 0 W/m2
05:52 17.6 °C 17 °C 1010.8 hPa Calm     96% 0.0 mm 0 W/m2
05:57 17.6 °C 17 °C 1010.8 hPa Calm     96% 0.0 mm 0 W/m2
06:02 17.6 °C 17 °C 1010.8 hPa Calm     96% 0.0 mm 0 W/m2
06:07 17.5 °C 16.7 °C 1010.8 hPa Calm     95% 0.0 mm 0 W/m2
06:12 17.5 °C 16.7 °C 1010.8 hPa Calm     95% 0.0 mm 0 W/m2
06:17 17.4 °C 16.6 °C 1010.8 hPa Calm     95% 0.0 mm 0 W/m2
06:22 17.4 °C 16.6 °C 1010.8 hPa Calm     95% 0.0 mm 0 W/m2
06:27 17.4 °C 16.6 °C 1010.8 hPa Calm     95% 0.0 mm 0 W/m2
06:32 17.4 °C 16.6 °C 1010.8 hPa Calm     95% 0.0 mm 0 W/m2
06:37 17.4 °C 16.6 °C 1010.8 hPa Calm     95% 0.0 mm 0 W/m2
06:42 17.4 °C 16.6 °C 1010.5 hPa Calm     95% 0.0 mm 0 W/m2
06:47 17.4 °C 16.6 °C 1010.5 hPa Calm     95% 0.0 mm 0 W/m2
06:52 17.4 °C 16.6 °C 1010.5 hPa Calm     95% 0.0 mm 0 W/m2
06:57 17.4 °C 16.6 °C 1010.5 hPa Calm     95% 0.0 mm 0 W/m2
07:02 17.4 °C 16.6 °C 1010.5 hPa Calm     95% 0.0 mm 0 W/m2
07:07 17.4 °C 16.6 °C 1010.5 hPa Calm     95% 0.0 mm 0 W/m2
07:12 17.5 °C 16.7 °C 1010.2 hPa Calm     95% 0.0 mm 0 W/m2
07:17 17.5 °C 16.7 °C 1010.2 hPa Calm     95% 0.0 mm 0 W/m2
07:22 17.5 °C 16.9 °C 1010.5 hPa Calm     96% 0.0 mm 0 W/m2
07:27 17.6 °C 17 °C 1010.5 hPa Calm     96% 0.0 mm 0 W/m2
07:32 17.6 °C 17 °C 1010.5 hPa Calm     96% 0.0 mm 0 W/m2
07:37 17.6 °C 17 °C 1010.5 hPa Calm     96% 0.0 mm 0 W/m2
07:42 17.7 °C 17.1 °C 1010.8 hPa Calm     96% 0.0 mm 5 W/m2
07:47 17.7 °C 17.1 °C 1010.8 hPa Calm     96% 0.0 mm 5 W/m2
07:52 17.7 °C 17.1 °C 1010.8 hPa Calm     96% 0.0 mm 9 W/m2
07:57 17.7 °C 17.1 °C 1010.8 hPa Calm     96% 0.0 mm 12 W/m2
08:02 17.7 °C 17.1 °C 1010.8 hPa Calm     96% 0.0 mm 14 W/m2
08:07 17.8 °C 17.2 °C 1010.8 hPa Calm     96% 0.0 mm 18 W/m2
08:13 17.8 °C 17.2 °C 1010.8 hPa Calm     96% 0.0 mm 19 W/m2
08:18 17.8 °C 17.2 °C 1010.8 hPa Calm     96% 0.0 mm 14 W/m2
08:23 17.9 °C 17.3 °C 1010.8 hPa Calm     96% 0.0 mm 12 W/m2
08:28 17.9 °C 17.3 °C 1010.8 hPa Calm     96% 0.0 mm 16 W/m2
08:33 17.9 °C 17.3 °C 1010.8 hPa Calm     96% 0.0 mm 14 W/m2
08:38 17.9 °C 17.3 °C 1010.8 hPa Calm     96% 0.0 mm 12 W/m2
08:43 18 °C 17.4 °C 1010.8 hPa Calm     96% 0.0 mm 16 W/m2
08:48 18 °C 17.4 °C 1010.8 hPa Calm     96% 0.0 mm 26 W/m2
08:53 18.1 °C 17.5 °C 1010.8 hPa ESE 1.4 km/h 4.8 km/h 96% 0.0 mm 37 W/m2
08:58 18.3 °C 17.7 °C 1010.8 hPa ESE 4.7 km/h 9.7 km/h 96% 0.0 mm 28 W/m2
09:03 18.4 °C 17.8 °C 1010.8 hPa ESE 1.4 km/h 1.6 km/h 96% 0.0 mm 35 W/m2
09:08 18.5 °C 17.8 °C 1010.8 hPa NE 1.4 km/h 9.7 km/h 96% 0.0 mm 47 W/m2
09:13 18.7 °C 18 °C 1010.8 hPa NE 1.4 km/h 3.2 km/h 96% 0.0 mm 60 W/m2
09:18 18.8 °C 18.1 °C 1010.8 hPa NE 1.4 km/h 1.6 km/h 96% 0.0 mm 58 W/m2
09:23 18.8 °C 18 °C 1010.8 hPa NE 1.4 km/h 3.2 km/h 95% 0.0 mm 42 W/m2
09:28 18.9 °C 18.1 °C 1010.8 hPa Calm   1.6 km/h 95% 0.0 mm 42 W/m2
09:33 19.1 °C 18.3 °C 1010.8 hPa WNW 1.4 km/h 3.2 km/h 95% 0.0 mm 44 W/m2
09:38 19.2 °C 18.2 °C 1010.8 hPa ENE 3.2 km/h 3.2 km/h 94% 0.0 mm 70 W/m2
09:43 19.3 °C 18.3 °C 1010.8 hPa Calm   1.6 km/h 94% 0.0 mm 88 W/m2
09:48 19.4 °C 18.4 °C 1010.8 hPa Calm   6.4 km/h 94% 0.0 mm 86 W/m2
09:53 19.5 °C 18.3 °C 1010.8 hPa NNW 4.7 km/h 6.4 km/h 93% 0.0 mm 95 W/m2
09:58 19.6 °C 18.4 °C 1010.8 hPa NW 1.4 km/h 6.4 km/h 93% 0.0 mm 107 W/m2
10:03 19.7 °C 18.5 °C 1010.8 hPa South 1.4 km/h 6.4 km/h 93% 0.0 mm 163 W/m2
10:08 19.8 °C 18.6 °C 1010.8 hPa Calm   3.2 km/h 93% 0.0 mm 139 W/m2
10:13 19.8 °C 18.5 °C 1010.8 hPa NNW 1.4 km/h 9.7 km/h 92% 0.0 mm 163 W/m2
10:18 19.9 °C 18.6 °C 1010.8 hPa NNE 1.4 km/h 4.8 km/h 92% 0.0 mm 216 W/m2
10:23 20.1 °C 18.8 °C 1010.8 hPa West 3.2 km/h 6.4 km/h 92% 0.0 mm 207 W/m2
10:28 20.2 °C 18.7 °C 1010.8 hPa NW 1.4 km/h 8 km/h 91% 0.0 mm 214 W/m2
10:33 20.3 °C 18.8 °C 1010.8 hPa NNW 3.2 km/h 4.8 km/h 91% 0.0 mm 246 W/m2
10:38 20.4 °C 18.7 °C 1010.8 hPa NW 4.7 km/h 8 km/h 90% 0.0 mm 206 W/m2
10:43 20.5 °C 18.8 °C 1010.8 hPa WSW 4.7 km/h 4.8 km/h 90% 0.0 mm 192 W/m2
10:48 20.6 °C 18.7 °C 1011.2 hPa West 3.2 km/h 3.2 km/h 89% 0.0 mm 209 W/m2
10:53 20.7 °C 18.6 °C 1010.8 hPa North 3.2 km/h 6.4 km/h 88% 0.0 mm 121 W/m2
10:58 20.7 °C 18.6 °C 1010.8 hPa Calm   8 km/h 88% 0.0 mm 244 W/m2
11:03 20.8 °C 18.7 °C 1010.8 hPa NNE 6.4 km/h 8 km/h 88% 0.0 mm 237 W/m2
11:08 20.8 °C 18.7 °C 1010.8 hPa West 3.2 km/h 11.3 km/h 88% 0.0 mm 241 W/m2
11:13 20.9 °C 18.7 °C 1011.2 hPa NW 1.4 km/h 6.4 km/h 87% 0.0 mm 229 W/m2
11:18 21 °C 18.8 °C 1011.2 hPa NW 1.4 km/h 6.4 km/h 87% 0.0 mm 241 W/m2
11:23 21.1 °C 18.7 °C 1011.2 hPa Calm   14.5 km/h 86% 0.0 mm 257 W/m2
11:28 21.1 °C 18.7 °C 1011.2 hPa West 3.2 km/h 11.3 km/h 86% 0.0 mm 223 W/m2
11:33 21.1 °C 18.7 °C 1011.2 hPa West 6.4 km/h 14.5 km/h 86% 0.0 mm 267 W/m2
11:38 21.2 °C 18.8 °C 1011.2 hPa WNW 13 km/h 14.5 km/h 86% 0.0 mm 299 W/m2
11:43 21.2 °C 18.8 °C 1010.8 hPa Calm   3.2 km/h 86% 0.0 mm 274 W/m2
11:48 21.3 °C 18.7 °C 1011.2 hPa WSW 6.4 km/h 8 km/h 85% 0.0 mm 149 W/m2
11:53 21.2 °C 18.6 °C 1011.2 hPa NW 4.7 km/h 12.9 km/h 85% 0.0 mm 149 W/m2
11:58 21.1 °C 18.5 °C 1011.2 hPa SW 3.2 km/h 12.9 km/h 85% 0.0 mm 111 W/m2
12:03 21.1 °C 18.5 °C 1010.8 hPa NNW 1.4 km/h 4.8 km/h 85% 0.0 mm 98 W/m2
12:08 21 °C 18.4 °C 1010.8 hPa WNW 4.7 km/h 11.3 km/h 85% 0.0 mm 70 W/m2
12:13 20.8 °C 18.2 °C 1011.2 hPa WNW 3.2 km/h 4.8 km/h 85% 0.0 mm 67 W/m2
12:18 20.7 °C 18.1 °C 1010.8 hPa NNE 1.4 km/h 6.4 km/h 85% 0.0 mm 69 W/m2
12:23 20.7 °C 18.3 °C 1010.8 hPa East 9.7 km/h 9.7 km/h 86% 0.0 mm 76 W/m2
12:28 20.6 °C 18.2 °C 1010.8 hPa WNW 1.4 km/h 11.3 km/h 86% 0.0 mm 102 W/m2
12:33 20.6 °C 18.2 °C 1010.8 hPa NNW 1.4 km/h 3.2 km/h 86% 0.0 mm 146 W/m2
12:38 20.6 °C 18.2 °C 1010.8 hPa Calm   11.3 km/h 86% 0.0 mm 156 W/m2
12:43 20.7 °C 18.3 °C 1010.8 hPa SSW 3.2 km/h 4.8 km/h 86% 0.0 mm 95 W/m2
12:48 20.7 °C 18.3 °C 1010.8 hPa NW 1.4 km/h 11.3 km/h 86% 0.0 mm 84 W/m2
12:53 20.7 °C 18.3 °C 1010.8 hPa WSW 7.9 km/h 9.7 km/h 86% 0.0 mm 67 W/m2
12:58 20.7 °C 18.3 °C 1010.8 hPa Calm   4.8 km/h 86% 0.0 mm 63 W/m2
13:03 20.7 °C 18.3 °C 1010.8 hPa West 1.4 km/h 3.2 km/h 86% 0.0 mm 60 W/m2
13:08 20.6 °C 18.2 °C 1010.8 hPa NNW 3.2 km/h 3.2 km/h 86% 0.0 mm 54 W/m2
13:13 20.6 °C 18.2 °C 1010.8 hPa NW 3.2 km/h 4.8 km/h 86% 0.0 mm 60 W/m2
13:18 20.5 °C 18.3 °C 1010.8 hPa NNW 3.2 km/h 6.4 km/h 87% 0.0 mm 67 W/m2
13:23 20.5 °C 18.3 °C 1010.8 hPa West 1.4 km/h 4.8 km/h 87% 0.0 mm 76 W/m2
13:28 20.4 °C 18.3 °C 1010.8 hPa West 9.7 km/h 11.3 km/h 88% 0.0 mm 98 W/m2
13:33 20.2 °C 18.1 °C 1010.8 hPa Calm   4.8 km/h 88% 0.0 mm 77 W/m2
13:38 20.2 °C 18.3 °C 1010.8 hPa NNW 1.4 km/h 4.8 km/h 89% 0.0 mm 81 W/m2
13:43 20.2 °C 18.3 °C 1010.8 hPa WNW 6.4 km/h 8 km/h 89% 0.0 mm 65 W/m2
13:48 20.1 °C 18.4 °C 1011.2 hPa Calm   1.6 km/h 90% 0.0 mm 67 W/m2
13:53 20.1 °C 18.4 °C 1010.8 hPa NE 1.4 km/h 3.2 km/h 90% 0.0 mm 49 W/m2
13:59 20.1 °C 18.4 °C 1010.8 hPa Calm   3.2 km/h 90% 0.0 mm 74 W/m2
14:04 20.2 °C 18.5 °C 1010.8 hPa Calm     90% 0.0 mm 56 W/m2
14:09 20.1 °C 18.4 °C 1010.8 hPa Calm     90% 0.0 mm 104 W/m2
14:14 20.1 °C 18.4 °C 1010.8 hPa WNW 3.2 km/h 3.2 km/h 90% 0.0 mm 158 W/m2
14:19 20.2 °C 18.5 °C 1010.8 hPa WNW 6.4 km/h 6.4 km/h 90% 0.0 mm 243 W/m2
14:24 20.3 °C 18.6 °C 1010.8 hPa NW 3.2 km/h 6.4 km/h 90% 0.0 mm 257 W/m2
14:29 20.4 °C 18.5 °C 1010.5 hPa NNW 1.4 km/h 6.4 km/h 89% 0.0 mm 311 W/m2
14:34 20.6 °C 18.7 °C 1010.8 hPa WNW 1.4 km/h 8 km/h 89% 0.0 mm 269 W/m2
14:39 20.7 °C 18.6 °C 1010.8 hPa Calm   8 km/h 88% 0.0 mm 81 W/m2
14:44 20.8 °C 18.7 °C 1010.8 hPa WNW 4.7 km/h 6.4 km/h 88% 0.0 mm 134 W/m2
14:49 20.7 °C 18.5 °C 1010.8 hPa West 1.4 km/h 11.3 km/h 87% 0.0 mm 142 W/m2
14:54 20.6 °C 18.5 °C 1010.8 hPa Calm   1.6 km/h 88% 0.0 mm 146 W/m2
14:59 20.6 °C 18.5 °C 1010.8 hPa SSW 3.2 km/h 4.8 km/h 88% 0.0 mm 178 W/m2
15:04 20.7 °C 18.6 °C 1010.8 hPa NW 4.7 km/h 6.4 km/h 88% 0.0 mm 236 W/m2
15:09 20.8 °C 18.7 °C 1010.8 hPa SSW 4.7 km/h 4.8 km/h 88% 0.0 mm 309 W/m2
15:14 20.8 °C 18.7 °C 1010.8 hPa SSW 3.2 km/h 12.9 km/h 88% 0.0 mm 246 W/m2
15:19 20.9 °C 18.8 °C 1010.8 hPa SW 6.4 km/h 8 km/h 88% 0.0 mm 155 W/m2
15:24 20.9 °C 18.7 °C 1010.8 hPa NW 3.2 km/h 12.9 km/h 87% 0.0 mm 192 W/m2
15:29 20.8 °C 18.6 °C 1010.8 hPa NW 1.4 km/h 16.1 km/h 87% 0.0 mm 311 W/m2
15:34 20.9 °C 18.7 °C 1010.8 hPa West 4.7 km/h 8 km/h 87% 0.0 mm 220 W/m2
15:39 21.1 °C 18.9 °C 1010.8 hPa South 1.4 km/h 12.9 km/h 87% 0.0 mm 371 W/m2
15:44 21.2 °C 18.8 °C 1010.8 hPa WNW 4.7 km/h 14.5 km/h 86% 0.0 mm 257 W/m2
15:49 21.2 °C 18.8 °C 1010.8 hPa NNW 4.7 km/h 6.4 km/h 86% 0.0 mm 186 W/m2
15:54 21.2 °C 18.9 °C 1010.8 hPa NNE 1.4 km/h 14.5 km/h 87% 0.0 mm 202 W/m2
15:59 21.2 °C 18.8 °C 1010.8 hPa SW 4.7 km/h 12.9 km/h 86% 0.0 mm 186 W/m2
16:04 21.2 °C 18.9 °C 1010.8 hPa WNW 6.4 km/h 8 km/h 87% 0.0 mm 332 W/m2
16:09 21.1 °C 18.7 °C 1010.5 hPa WNW 3.2 km/h 16.1 km/h 86% 0.0 mm 385 W/m2
16:14 21.3 °C 19 °C 1010.5 hPa West 3.2 km/h 8 km/h 87% 0.0 mm 408 W/m2
16:19 21.7 °C 19.3 °C 1010.5 hPa WNW 3.2 km/h 16.1 km/h 86% 0.0 mm 584 W/m2
16:24 22 °C 19.4 °C 1010.5 hPa South 3.2 km/h 6.4 km/h 85% 0.0 mm 197 W/m2
16:29 22.1 °C 19.3 °C 1010.5 hPa Calm   4.8 km/h 84% 0.0 mm 455 W/m2
16:34 22.2 °C 19.2 °C 1010.5 hPa North 1.4 km/h 12.9 km/h 83% 0.0 mm 387 W/m2
16:39 22.1 °C 19.3 °C 1010.5 hPa WSW 7.9 km/h 12.9 km/h 84% 0.0 mm 381 W/m2
16:44 22 °C 19.2 °C 1010.5 hPa NNW 6.4 km/h 14.5 km/h 84% 0.0 mm 357 W/m2
16:49 21.8 °C 18.8 °C 1010.8 hPa West 3.2 km/h 4.8 km/h 83% 0.0 mm 100 W/m2
16:54 21.7 °C 18.9 °C 1010.8 hPa WSW 6.4 km/h 14.5 km/h 84% 0.0 mm 93 W/m2
16:59 21.5 °C 18.7 °C 1010.8 hPa NW 1.4 km/h 4.8 km/h 84% 0.0 mm 95 W/m2
17:04 21.5 °C 18.7 °C 1010.8 hPa WNW 4.7 km/h 6.4 km/h 84% 0.0 mm 88 W/m2
17:09 21.5 °C 18.7 °C 1010.8 hPa Calm   1.6 km/h 84% 0.0 mm 90 W/m2
17:14 21.5 °C 18.9 °C 1010.5 hPa WNW 1.4 km/h 4.8 km/h 85% 0.0 mm 135 W/m2
17:19 21.4 °C 19 °C 1010.5 hPa Calm   3.2 km/h 86% 0.0 mm 162 W/m2
17:24 21.4 °C 19 °C 1010.5 hPa NNW 3.2 km/h 4.8 km/h 86% 0.0 mm 183 W/m2
17:29 21.3 °C 18.9 °C 1010.5 hPa NE 1.4 km/h 6.4 km/h 86% 0.0 mm 137 W/m2
17:34 21.4 °C 19 °C 1010.8 hPa NNW 1.4 km/h 3.2 km/h 86% 0.0 mm 132 W/m2
17:39 21.4 °C 19 °C 1010.8 hPa NNE 1.4 km/h 1.6 km/h 86% 0.0 mm 149 W/m2
17:44 21.4 °C 19 °C 1010.8 hPa SW 1.4 km/h 3.2 km/h 86% 0.0 mm 113 W/m2
17:49 21.5 °C 19.1 °C 1010.8 hPa Calm   4.8 km/h 86% 0.0 mm 70 W/m2
17:54 21.4 °C 19 °C 1010.8 hPa Calm   1.6 km/h 86% 0.0 mm 65 W/m2
17:59 21.4 °C 19 °C 1010.8 hPa Calm   1.6 km/h 86% 0.0 mm 49 W/m2
18:04 21.4 °C 19.1 °C 1010.8 hPa NW 1.4 km/h 4.8 km/h 87% 0.0 mm 37 W/m2
18:09 21.2 °C 18.9 °C 1010.8 hPa Calm   3.2 km/h 87% 0.0 mm 32 W/m2
18:14 21.2 °C 18.9 °C 1010.8 hPa NW 4.7 km/h 4.8 km/h 87% 0.0 mm 72 W/m2
18:19 21.1 °C 18.9 °C 1010.8 hPa NNW 1.4 km/h 3.2 km/h 87% 0.0 mm 58 W/m2
18:24 21.1 °C 19 °C 1010.8 hPa NE 1.4 km/h 3.2 km/h 88% 0.0 mm 135 W/m2
18:29 21.2 °C 19.1 °C 1010.5 hPa Calm   4.8 km/h 88% 0.0 mm 81 W/m2
18:34 21.2 °C 18.9 °C 1010.8 hPa WSW 4.7 km/h 4.8 km/h 87% 0.0 mm 127 W/m2
18:39 21.3 °C 19 °C 1010.5 hPa Calm   1.6 km/h 87% 0.0 mm 83 W/m2
18:44 21.3 °C 19 °C 1010.5 hPa Calm   9.7 km/h 87% 0.0 mm 30 W/m2
18:49 21.2 °C 18.8 °C 1010.8 hPa NW 3.2 km/h 8 km/h 86% 0.0 mm 23 W/m2
18:54 21 °C 18.6 °C 1010.8 hPa NW 4.7 km/h 6.4 km/h 86% 0.0 mm 16 W/m2
18:59 20.8 °C 18.6 °C 1010.8 hPa NW 4.7 km/h 6.4 km/h 87% 0.0 mm 14 W/m2
19:04 20.7 °C 18.5 °C 1010.8 hPa WNW 4.7 km/h 11.3 km/h 87% 0.0 mm 12 W/m2
19:09 20.6 °C 18.5 °C 1010.8 hPa WNW 3.2 km/h 4.8 km/h 88% 0.0 mm 12 W/m2
19:14 20.4 °C 18.3 °C 1011.2 hPa WNW 3.2 km/h 4.8 km/h 88% 0.0 mm 9 W/m2
19:19 20.3 °C 18.2 °C 1010.8 hPa West 3.2 km/h 3.2 km/h 88% 0.0 mm 7 W/m2
19:24 20.2 °C 18.3 °C 1011.2 hPa West 3.2 km/h 9.7 km/h 89% 0.0 mm 7 W/m2
19:29 20.2 °C 18.3 °C 1011.2 hPa WNW 1.4 km/h 6.4 km/h 89% 0.0 mm 7 W/m2
19:34 20.2 °C 18.3 °C 1011.2 hPa Calm   3.2 km/h 89% 0.0 mm 5 W/m2
19:39 20.2 °C 18.3 °C 1011.2 hPa WNW 3.2 km/h 6.4 km/h 89% 0.0 mm 0 W/m2
19:44 20.1 °C 18.2 °C 1011.2 hPa NW 4.7 km/h 8 km/h 89% 0.0 mm 0 W/m2
19:49 20.1 °C 18.2 °C 1011.2 hPa NW 3.2 km/h 4.8 km/h 89% 0.0 mm 0 W/m2
19:54 20.1 °C 18.2 °C 1011.2 hPa Calm   8 km/h 89% 0.0 mm 0 W/m2
19:59 20 °C 18.1 °C 1011.2 hPa NNW 1.4 km/h 3.2 km/h 89% 0.0 mm 0 W/m2
20:04 19.9 °C 18 °C 1011.5 hPa WNW 3.2 km/h 9.7 km/h 89% 0.0 mm 0 W/m2
20:09 19.9 °C 18 °C 1011.5 hPa WNW 3.2 km/h 8 km/h 89% 0.0 mm 0 W/m2
20:14 19.9 °C 18.2 °C 1011.5 hPa NW 6.4 km/h 9.7 km/h 90% 0.0 mm 0 W/m2
20:19 19.8 °C 18.1 °C 1011.9 hPa Calm   9.7 km/h 90% 0.0 mm 0 W/m2
20:25 19.8 °C 18.1 °C 1011.9 hPa West 3.2 km/h 11.3 km/h 90% 0.0 mm 0 W/m2
20:30 19.8 °C 18.1 °C 1011.9 hPa SW 6.4 km/h 12.9 km/h 90% 0.0 mm 0 W/m2
20:35 19.8 °C 18.1 °C 1011.9 hPa WSW 3.2 km/h 6.4 km/h 90% 0.0 mm 0 W/m2
20:40 19.6 °C 17.9 °C 1011.9 hPa WNW 6.4 km/h 6.4 km/h 90% 0.0 mm 0 W/m2
20:45 19.4 °C 17.9 °C 1011.9 hPa West 6.4 km/h 9.7 km/h 91% 0.0 mm 0 W/m2
20:50 19.3 °C 17.8 °C 1011.9 hPa WNW 6.4 km/h 11.3 km/h 91% 0.0 mm 0 W/m2
20:55 19.2 °C 17.9 °C 1011.9 hPa WNW 3.2 km/h 6.4 km/h 92% 0.2 mm 0 W/m2
21:00 19.1 °C 17.8 °C 1011.9 hPa West 4.7 km/h 6.4 km/h 92% 0.2 mm 0 W/m2
21:05 19.1 °C 17.8 °C 1011.9 hPa West 1.4 km/h 3.2 km/h 92% 0.2 mm 0 W/m2
21:10 19.1 °C 17.9 °C 1011.9 hPa WSW 3.2 km/h 6.4 km/h 93% 0.2 mm 0 W/m2
21:15 19.1 °C 17.9 °C 1012.2 hPa West 4.7 km/h 9.7 km/h 93% 0.2 mm 0 W/m2
21:20 19 °C 17.8 °C 1012.2 hPa West 3.2 km/h 4.8 km/h 93% 0.2 mm 0 W/m2
21:25 19 °C 17.8 °C 1012.2 hPa WSW 7.9 km/h 8 km/h 93% 0.2 mm 0 W/m2
21:30 18.9 °C 17.7 °C 1011.9 hPa WNW 3.2 km/h 11.3 km/h 93% 0.2 mm 0 W/m2
21:35 18.9 °C 17.9 °C 1011.9 hPa West 3.2 km/h 6.4 km/h 94% 0.2 mm 0 W/m2
21:40 18.9 °C 17.9 °C 1012.2 hPa WNW 1.4 km/h 11.3 km/h 94% 0.2 mm 0 W/m2
21:45 18.8 °C 17.8 °C 1012.2 hPa West 4.7 km/h 6.4 km/h 94% 0.5 mm 0 W/m2
21:50 18.8 °C 17.8 °C 1012.2 hPa West 3.2 km/h 6.4 km/h 94% 0.2 mm 0 W/m2
21:55 18.7 °C 17.7 °C 1012.2 hPa WNW 6.4 km/h 6.4 km/h 94% 0.2 mm 0 W/m2
22:00 18.7 °C 17.7 °C 1012.2 hPa WSW 3.2 km/h 8 km/h 94% 0.2 mm 0 W/m2
22:05 18.7 °C 17.7 °C 1012.2 hPa NW 1.4 km/h 3.2 km/h 94% 0.2 mm 0 W/m2
22:10 18.7 °C 17.7 °C 1012.5 hPa Calm   1.6 km/h 94% 0.5 mm 0 W/m2
22:15 18.7 °C 17.7 °C 1012.5 hPa NW 1.4 km/h 1.6 km/h 94% 0.5 mm 0 W/m2
22:20 18.7 °C 17.9 °C 1012.5 hPa NW 3.2 km/h 4.8 km/h 95% 0.5 mm 0 W/m2
22:25 18.7 °C 17.9 °C 1012.5 hPa Calm   3.2 km/h 95% 0.5 mm 0 W/m2
22:30 18.7 °C 17.9 °C 1012.5 hPa Calm     95% 0.5 mm 0 W/m2
22:35 18.6 °C 17.8 °C 1012.5 hPa NW 3.2 km/h 4.8 km/h 95% 0.5 mm 0 W/m2
22:40 18.6 °C 17.8 °C 1012.5 hPa WNW 1.4 km/h 3.2 km/h 95% 0.5 mm 0 W/m2
22:45 18.5 °C 17.7 °C 1012.5 hPa West 3.2 km/h 3.2 km/h 95% 0.5 mm 0 W/m2
22:50 18.5 °C 17.7 °C 1012.5 hPa WNW 3.2 km/h 4.8 km/h 95% 0.5 mm 0 W/m2
22:55 18.4 °C 17.6 °C 1012.5 hPa WNW 7.9 km/h 14.5 km/h 95% 0.5 mm 0 W/m2
23:00 18.2 °C 17.4 °C 1012.9 hPa West 9.7 km/h 11.3 km/h 95% 0.8 mm 0 W/m2
23:05 18.1 °C 17.3 °C 1012.5 hPa West 4.7 km/h 9.7 km/h 95% 0.8 mm 0 W/m2
23:10 18 °C 17.2 °C 1012.5 hPa West 6.4 km/h 6.4 km/h 95% 0.5 mm 0 W/m2
23:15 17.9 °C 17.1 °C 1012.9 hPa West 6.4 km/h 6.4 km/h 95% 0.5 mm 0 W/m2
23:20 17.8 °C 17 °C 1012.9 hPa WNW 3.2 km/h 6.4 km/h 95% 0.5 mm 0 W/m2
23:25 17.8 °C 16.8 °C 1012.9 hPa WNW 7.9 km/h 8 km/h 94% 0.5 mm 0 W/m2
23:30 17.7 °C 16.7 °C 1012.9 hPa WSW 4.7 km/h 9.7 km/h 94% 0.5 mm 0 W/m2
23:35 17.7 °C 16.7 °C 1012.9 hPa WNW 6.4 km/h 11.3 km/h 94% 0.5 mm 0 W/m2
23:40 17.6 °C 16.6 °C 1012.9 hPa NW 1.4 km/h 4.8 km/h 94% 0.5 mm 0 W/m2
23:45 17.7 °C 16.7 °C 1012.9 hPa WNW 1.4 km/h 8 km/h 94% 0.5 mm 0 W/m2
23:50 17.6 °C 16.6 °C 1012.9 hPa West 1.4 km/h 3.2 km/h 94% 0.2 mm 0 W/m2
23:55 17.6 °C 16.6 °C 1012.9 hPa Calm   4.8 km/h 94% 0.2 mm 0 W/m2
Juneau County Weather
Compliments of Weather Underground - 4 mb